[[{"header":{"parameterUnit":"m.s-1","parameterCategory":1,"la1":30.2991,"la2":30.254,"lo1":-89.0895,"lo2":-89.0444,"dy":0.0017,"dx":0.0017,"nx":28,"ny":28,"refTime":"2025-11-04T03:00:00:Z","depth":0,"parameterNumber":2,"parameterNumberName":"U-component_of_WINDS"},"data":[0,0,0,0,0,0,0,0,0,0,0,0,0,0,0,0,0,0,0,0,0,0,0,0,0,0,0,0,0,0,0,0,0,0,0,0,0,0,0,0,0,0,0,0,0,0,0,0,0,0,0,0,0,0,0,0,0,0,-0.7015,-0.7015,0,-0.7096,-0.7097,-0.7098,-0.713,-0.713,-0.7129,-0.7129,-0.7214,-0.7216,-0.7219,0,0,0,0,0,0,0,0,0,0,0,0,0,-0.6889,-0.6891,-0.7015,-0.7016,-0.7017,-0.7096,-0.7097,-0.7098,-0.713,-0.713,-0.7129,-0.7129,-0.7213,-0.7216,-0.7219,0,0,0,0,0,0,0,0,0,0,0,0,0,-0.6954,-0.6891,-0.7014,-0.7042,-0.7045,-0.7095,-0.7097,-0.7098,-0.713,-0.713,-0.7129,-0.7129,-0.7212,-0.7216,-0.7219,-0.7248,0,0,-0.7231,-0.7232,0,0,0,0,0,0,0,0,-0.695,-0.6959,-0.7037,-0.704,-0.7044,-0.7102,-0.7083,-0.7149,-0.713,-0.7098,-0.7129,-0.7129,-0.7177,-0.7184,-0.72,-0.7252,-0.7256,-0.7231,-0.7233,-0.7235,-0.7236,0,0,0,0,0,0,0,-0.6946,-0.6955,-0.7047,-0.7038,-0.7042,-0.7051,-0.706,-0.7096,-0.7138,-0.7101,-0.7103,-0.7112,-0.7179,-0.7196,-0.7202,-0.7257,-0.7231,-0.7234,-0.7236,-0.7238,-0.7338,-0.7338,0,0,0,0,0,0,-0.6936,-0.6951,-0.7044,-0.7049,-0.6995,-0.7053,-0.7063,-0.7084,-0.7138,-0.7146,-0.7112,-0.7113,-0.719,-0.7198,-0.7205,-0.7243,-0.7235,-0.7238,-0.724,-0.7338,-0.7338,-0.7339,0,0,0,0,0,0,-0.6933,-0.6944,-0.7041,-0.7001,-0.7014,-0.7056,-0.7079,-0.7086,-0.7103,-0.7147,-0.7155,-0.7122,-0.719,-0.72,-0.7237,-0.7246,-0.724,-0.7243,-0.7337,-0.7338,-0.7338,-0.7318,0,0,0,0,0,0,-0.693,-0.6943,-0.6954,-0.7001,-0.7016,-0.7071,-0.7079,-0.7088,-0.7109,-0.7111,-0.7158,-0.7165,-0.7191,-0.7232,-0.7241,-0.7251,-0.7246,-0.7336,-0.7337,-0.7338,-0.7318,-0.7318,-0.7318,0,0,0,0,0,-0.6925,-0.6946,-0.6955,-0.6966,-0.7031,-0.7072,-0.708,-0.7108,-0.7109,-0.7121,-0.715,-0.7164,-0.7243,-0.7235,-0.7246,-0.7257,-0.7336,-0.7337,-0.7338,-0.7318,-0.7318,-0.7318,0,0,0,0,0,0,-0.69,-0.6952,-0.6963,-0.6999,-0.703,-0.7077,-0.7093,-0.7107,-0.714,-0.714,-0.7174,-0.7184,-0.7219,-0.7242,-0.7232,-0.7288,-0.7291,-0.7294,-0.7272,-0.7272,-0.7272,-0.7266,-0.7249,0,0,0,0,0,-0.6898,-0.6926,-0.6971,-0.6999,-0.7014,-0.705,-0.707,-0.7088,-0.7123,-0.7136,-0.7168,-0.7201,-0.7233,-0.7254,-0.7286,-0.7321,-0.7332,-0.7335,-0.7334,-0.7334,-0.7337,-0.7357,-0.7359,-0.7342,-0.7342,-0.7342,0,0,-0.6895,-0.6928,-0.6944,-0.6994,-0.7021,-0.705,-0.7062,-0.7092,-0.7114,-0.7141,-0.7178,-0.7202,-0.7242,-0.7278,-0.7296,-0.7298,-0.7344,-0.7335,-0.7335,-0.7338,-0.7358,-0.736,-0.7361,-0.7343,-0.7343,-0.7342,0,0,-0.6905,-0.6932,-0.6958,-0.6985,-0.7025,-0.7049,-0.7055,-0.71,-0.7116,-0.7154,-0.7175,-0.7202,-0.7257,-0.7284,-0.7305,-0.7325,-0.734,-0.7335,-0.7334,-0.7354,-0.7355,-0.7356,-0.7364,-0.7366,-0.7337,-0.7337,-0.7337,0,-0.6897,-0.6942,-0.697,-0.6999,-0.7021,-0.7046,-0.7073,-0.7097,-0.7146,-0.7161,-0.7163,-0.7233,-0.7261,-0.7304,-0.7309,-0.7325,-0.7333,-0.733,-0.7352,-0.7354,-0.7356,-0.7363,-0.7366,-0.7336,-0.7336,-0.7336,-0.7336,0,-0.693,-0.696,-0.6976,-0.7022,-0.7046,-0.7074,-0.7107,-0.7127,-0.7144,-0.7168,-0.7206,-0.7241,-0.7281,-0.7292,-0.7309,-0.7338,-0.7338,-0.7346,-0.7349,-0.7356,-0.7364,-0.7367,-0.7335,-0.7335,-0.7335,-0.7336,0,0,-0.6927,-0.6987,-0.6993,-0.7014,-0.706,-0.7084,-0.7113,-0.7151,-0.7169,-0.7201,-0.7227,-0.7273,-0.728,-0.7304,-0.7324,-0.7341,-0.7355,-0.7347,-0.7348,-0.7347,-0.7389,-0.7383,-0.7386,-0.7364,-0.7365,-0.7366,-0.7386,0,-0.6943,-0.6996,-0.7022,-0.7064,-0.7092,-0.7116,-0.7141,-0.7172,-0.7195,-0.7224,-0.7249,-0.7281,-0.7288,-0.7303,-0.7321,-0.7349,-0.7364,-0.7348,-0.7389,-0.739,-0.7379,-0.739,-0.7384,-0.7402,-0.7389,-0.739,-0.739,0,-0.697,-0.7002,-0.7046,-0.7088,-0.7101,-0.7123,-0.716,-0.7187,-0.7222,-0.7238,-0.7264,-0.7284,-0.7316,-0.7316,-0.7361,-0.7349,-0.7368,-0.7384,-0.7386,-0.7391,-0.7391,-0.7396,-0.7408,-0.7411,-0.7395,-0.7394,-0.7394,0,-0.6964,-0.7017,-0.7051,-0.7068,-0.7118,-0.7133,-0.7155,-0.719,-0.7211,-0.7244,-0.7258,-0.7294,-0.7314,-0.7342,-0.7371,-0.7368,-0.7413,-0.7415,-0.7427,-0.7426,-0.7436,-0.7435,-0.7451,-0.7447,-0.7447,-0.7446,-0.7446,0,-0.698,-0.7006,-0.7049,-0.7069,-0.7099,-0.7129,-0.7158,-0.7182,-0.7213,-0.7239,-0.7262,-0.7285,-0.7322,-0.735,-0.7373,-0.7407,-0.7415,-0.7429,-0.7435,-0.7428,-0.7426,-0.7441,-0.744,-0.7447,-0.7447,-0.7447,-0.7447,0,-0.6978,-0.7008,-0.7046,-0.709,-0.7101,-0.7121,-0.7159,-0.718,-0.7204,-0.7237,-0.7246,-0.7284,-0.7319,-0.735,-0.7396,-0.7411,-0.7446,-0.7453,-0.7434,-0.7437,-0.7447,-0.7446,-0.7474,-0.7479,-0.747,-0.747,-0.747,0,-0.6987,-0.7008,-0.7053,-0.7072,-0.7093,-0.7123,-0.7144,-0.7175,-0.7196,-0.7238,-0.7254,-0.729,-0.7321,-0.7376,-0.7408,-0.7443,-0.7452,-0.7459,-0.7457,-0.7449,-0.7452,-0.7451,-0.7453,-0.7459,-0.7459,-0.7459,-0.7459,0,-0.7,-0.7013,-0.7043,-0.7078,-0.7103,-0.7132,-0.7162,-0.7176,-0.7212,-0.7235,-0.7271,-0.7294,-0.7341,-0.7377,-0.7416,-0.7439,-0.7455,-0.7459,-0.7463,-0.7456,-0.7444,-0.7451,-0.7434,-0.7458,-0.7458,-0.7458,-0.7458,-0.7458,-0.7004,-0.7024,-0.7058,-0.7091,-0.7116,-0.7144,-0.7166,-0.7192,-0.7222,-0.7262,-0.7278,-0.7314,-0.7349,-0.7403,-0.7426,-0.7455,-0.7458,-0.7464,-0.7466,-0.7468,-0.7466,-0.7439,-0.7462,-0.7462,-0.7462,-0.7462,-0.7462,0,-0.7018,-0.7042,-0.7071,-0.7112,-0.7138,-0.7149,-0.7183,-0.7204,-0.7235,-0.7266,-0.7295,-0.7336,-0.7371,-0.7405,-0.7442,-0.7459,-0.7467,-0.7467,-0.7467,-0.7472,-0.7461,-0.7454,-0.746,-0.746,-0.746,-0.746,-0.746,-0.746,-0.7029,-0.7062,-0.7079,-0.7126,-0.7149,-0.7184,-0.7202,-0.7228,-0.7253,-0.7297,-0.7325,-0.7347,-0.738,-0.7419,-0.7451,-0.7461,-0.7473,-0.7472,-0.7483,-0.7473,-0.7473,-0.7472,-0.7466,-0.7474,-0.7474,-0.7491,-0.7492,-0.7492]},{"header":{"parameterUnit":"m.s-1","parameterCategory":1,"la1":30.2991,"la2":30.254,"lo1":-89.0895,"lo2":-89.0444,"dy":0.0017,"dx":0.0017,"nx":28,"ny":28,"refTime":"2025-11-04T03:00:00:Z","depth":0,"parameterNumber":3,"parameterNumberName":"V-component_of_WINDS"},"data":[0,0,0,0,0,0,0,0,0,0,0,0,0,0,0,0,0,0,0,0,0,0,0,0,0,0,0,0,0,0,0,0,0,0,0,0,0,0,0,0,0,0,0,0,0,0,0,0,0,0,0,0,0,0,0,0,0,0,3.6403,3.6403,0,3.6435,3.6436,3.6436,3.6373,3.6371,3.6369,3.6367,3.6397,3.6399,3.6402,0,0,0,0,0,0,0,0,0,0,0,0,0,3.6282,3.6284,3.6403,3.6403,3.6403,3.6435,3.6436,3.6436,3.6374,3.6371,3.6369,3.6367,3.6396,3.6399,3.6402,0,0,0,0,0,0,0,0,0,0,0,0,0,3.6326,3.6285,3.6403,3.6376,3.6374,3.6435,3.6436,3.6436,3.6374,3.6371,3.6368,3.6365,3.6395,3.6399,3.6403,3.6489,0,0,3.6415,3.6417,0,0,0,0,0,0,0,0,3.6324,3.6331,3.638,3.6378,3.6376,3.6397,3.6404,3.6454,3.6375,3.6374,3.6367,3.6364,3.6399,3.6403,3.6415,3.6491,3.6492,3.6415,3.6418,3.642,3.6421,0,0,0,0,0,0,0,3.6321,3.6329,3.6415,3.6381,3.6378,3.6361,3.6364,3.6413,3.6403,3.6374,3.637,3.6375,3.6397,3.6412,3.6416,3.6492,3.6415,3.6419,3.6421,3.6423,3.6638,3.6641,0,0,0,0,0,0,3.6322,3.6327,3.6414,3.6416,3.6342,3.6366,3.6369,3.6393,3.6403,3.6401,3.6377,3.6372,3.6406,3.6411,3.6416,3.6516,3.642,3.6423,3.6426,3.6635,3.6639,3.6642,0,0,0,0,0,0,3.6319,3.633,3.6413,3.6371,3.638,3.6372,3.6399,3.6396,3.641,3.6405,3.6403,3.6394,3.6404,3.6411,3.6471,3.6516,3.6425,3.6429,3.6631,3.6636,3.6641,3.6717,0,0,0,0,0,0,3.6316,3.633,3.6363,3.6372,3.6382,3.6469,3.6402,3.6399,3.6417,3.641,3.642,3.6418,3.6402,3.6466,3.6475,3.652,3.6432,3.6627,3.6633,3.6639,3.6711,3.6724,3.6736,0,0,0,0,0,3.6312,3.6383,3.6365,3.6376,3.6425,3.6472,3.6477,3.6458,3.6421,3.6454,3.6451,3.6418,3.6511,3.6472,3.6483,3.6529,3.6624,3.6631,3.6639,3.6705,3.6722,3.6736,0,0,0,0,0,0,3.6379,3.6384,3.6364,3.644,3.6456,3.6461,3.6502,3.6477,3.6502,3.6494,3.6469,3.6471,3.6536,3.6539,3.6497,3.6613,3.6561,3.6571,3.6608,3.6623,3.6636,3.6632,3.6435,0,0,0,0,0,3.6403,3.6442,3.6444,3.6511,3.652,3.651,3.653,3.6514,3.6529,3.6534,3.6536,3.655,3.6582,3.6604,3.6633,3.6712,3.6712,3.6749,3.6762,3.6772,3.678,3.682,3.6835,3.6667,3.6667,3.6666,0,0,3.6452,3.6459,3.6485,3.6525,3.6535,3.6574,3.6516,3.656,3.6588,3.6541,3.6597,3.66,3.6614,3.6684,3.6714,3.6688,3.6827,3.6782,3.679,3.6792,3.6829,3.6845,3.6859,3.6672,3.6671,3.667,0,0,3.656,3.6572,3.6627,3.664,3.6656,3.6649,3.6663,3.6672,3.6672,3.6729,3.6693,3.6727,3.6783,3.6794,3.6807,3.6921,3.689,3.6931,3.6996,3.7035,3.7048,3.7059,3.7097,3.7111,3.694,3.694,3.694,0,3.6618,3.6677,3.6659,3.6706,3.6723,3.6684,3.6739,3.6751,3.6776,3.6788,3.676,3.6829,3.6836,3.6906,3.6934,3.6947,3.696,3.6928,3.7048,3.7059,3.707,3.7105,3.712,3.6945,3.6944,3.6944,3.6943,0,3.6746,3.6788,3.6831,3.6857,3.688,3.6931,3.6919,3.6944,3.6927,3.6922,3.698,3.6988,3.7017,3.7033,3.7017,3.7101,3.7084,3.7053,3.6999,3.7091,3.7123,3.7137,3.6951,3.695,3.6948,3.6947,0,0,3.6895,3.6912,3.6927,3.6938,3.6954,3.6985,3.7034,3.7064,3.7085,3.7104,3.7142,3.7192,3.7162,3.7177,3.7162,3.7197,3.7283,3.716,3.716,3.7179,3.7373,3.7394,3.7411,3.7265,3.7267,3.7269,3.7371,0,3.7,3.7084,3.707,3.7151,3.7188,3.7152,3.7194,3.7208,3.7206,3.7235,3.7233,3.7267,3.7227,3.7235,3.7269,3.7265,3.7321,3.7258,3.7297,3.7298,3.7291,3.7428,3.7451,3.7546,3.7384,3.7386,3.7388,0,3.7133,3.7158,3.7244,3.7253,3.7268,3.7306,3.7332,3.7362,3.7377,3.7372,3.739,3.7368,3.7414,3.7364,3.7426,3.7384,3.74,3.7401,3.7404,3.7403,3.7346,3.7428,3.7577,3.759,3.7408,3.7407,3.7405,0,3.7228,3.7284,3.7341,3.7352,3.7366,3.7393,3.74,3.7412,3.7431,3.7454,3.7465,3.7493,3.7507,3.7528,3.7514,3.7479,3.7578,3.7526,3.7573,3.7573,3.7592,3.759,3.7741,3.7609,3.7609,3.7608,3.7608,0,3.7345,3.7397,3.7384,3.7419,3.7477,3.746,3.7517,3.7519,3.753,3.7564,3.7536,3.7567,3.7548,3.7578,3.7568,3.7619,3.7627,3.7623,3.7619,3.7623,3.7623,3.763,3.7621,3.7612,3.7611,3.761,3.761,0,3.7459,3.7453,3.7513,3.7522,3.7525,3.7567,3.7574,3.7605,3.7602,3.7645,3.7654,3.7648,3.7682,3.7671,3.7707,3.77,3.7765,3.7754,3.776,3.7755,3.7801,3.7796,3.7959,3.7978,3.7837,3.7838,3.7839,0,3.7532,3.7572,3.7585,3.7606,3.7616,3.765,3.7669,3.7655,3.7675,3.7695,3.7724,3.7756,3.778,3.7836,3.7833,3.7861,3.7848,3.7904,3.7852,3.7855,3.7845,3.7841,3.7843,3.7912,3.7914,3.7915,3.7917,0,3.7661,3.7656,3.7685,3.7714,3.7738,3.776,3.7778,3.7797,3.7783,3.7808,3.7843,3.7862,3.79,3.793,3.7955,3.796,3.7935,3.7934,3.7945,3.7948,3.7949,3.7946,3.7784,3.7929,3.7928,3.7927,3.7926,3.7926,3.7754,3.7787,3.7801,3.7835,3.7848,3.7866,3.7896,3.7897,3.7927,3.7956,3.7946,3.7985,3.7998,3.8029,3.8038,3.8068,3.8046,3.8064,3.8067,3.8071,3.8075,3.7948,3.8073,3.8072,3.8072,3.8072,3.8071,0,3.7878,3.7886,3.7918,3.7945,3.7971,3.7949,3.7968,3.7991,3.8026,3.8041,3.8066,3.8106,3.8136,3.8137,3.8165,3.8188,3.8177,3.8195,3.8191,3.8192,3.8095,3.808,3.8203,3.8203,3.8203,3.8203,3.8203,3.8203,3.7945,3.7999,3.7996,3.8056,3.8063,3.8103,3.8115,3.8132,3.8143,3.8189,3.8214,3.8216,3.8224,3.8253,3.8279,3.8278,3.8288,3.831,3.8305,3.8213,3.8199,3.8187,3.8173,3.8313,3.8313,3.8399,3.84,3.8401]}]]